Weather History for KSPB - January, 2013

Change the Weather History Date:

Friday, January 25, 2013

  Actual Average Record
Temperature  
Mean Temperature 40 °F -  
Max Temperature 48 °F - 54 °F (2003)
Min Temperature 33 °F - 21 °F (2008)
Degree Days  
Heating Degree Days 24    
Month to date heating degree days 764  
Since 1 July heating degree days 2604  
Cooling Degree Days 0    
Month to date cooling degree days 0  
Year to date cooling degree days 0  
Moisture  
Dew Point 38 °F    
Average Humidity 93    
Maximum Humidity 100    
Minimum Humidity 86    
Precipitation  
Precipitation 0.01 in - 0.84 in (2002)
Month to date precipitation 1.26  
Year to date precipitation 1.26  
Sea Level Pressure  
Sea Level Pressure 30.02 in    
Wind  
Wind Speed 1 mph (West)    
Max Wind Speed 8 mph    
Max Gust Speed 8 mph    
Visibility 3 miles    
Events Fog , Rain    
T = Trace of Precipitation, MM = Missing Value Source: NWS Daily Summary

Daily Weather History Graph

Daily Weather History Graph

Search for Another Location

Airport or City:

Trip Planner

Search our weather history database for the weather conditions in past years. The results will help you decide how hot, cold, wet, or windy it might be!

Date:

Astronomy

Jan. 25, 2013 Rise Set
Actual Time 7:40 AM PST 5:07 PM PST
Civil Twilight 7:08 AM PST 5:40 PM PST
Nautical Twilight 6:31 AM PST 6:16 PM PST
Astronomical Twilight 5:56 AM PST 6:51 PM PST
Moon 4:10 PM PST (1/25) 6:24 AM PST (1/25)
Length of Visible Light 10h 32m
Length of Day
9h 27m
Waxing Gibbous, 98% of the Moon is Illuminated
Jan 25
Waxing Gibbous
Jan 26
Full
Feb 3
Last Quarter
Feb 9
New
Feb 17
First Quarter

Hourly Weather History & Observations

Time (PST) Temp. Windchill Dew Point Humidity Pressure Visibility Wind Dir Wind Speed Gust Speed Precip Events Conditions
12:53 AM 39.9 °F 37.8 °F 39.0 °F 97% 30.13 in 5.0 mi SE 3.5 mph - 0.01 in Rain Light Rain
1:53 AM 39.9 °F - 39.0 °F 97% 30.12 in 6.0 mi Calm Calm - 0.00 in   Overcast
2:53 AM 39.9 °F - 39.0 °F 97% 30.11 in 3.0 mi Calm Calm - N/A   Overcast
3:01 AM 39.2 °F - 39.2 °F 100% 30.11 in 1.8 mi Calm Calm - N/A   Overcast
3:14 AM 39.2 °F - 37.4 °F 93% 30.11 in 0.8 mi Calm Calm - N/A   Overcast
3:53 AM 39.0 °F - 37.9 °F 96% 30.10 in 1.0 mi Calm Calm - N/A   Overcast
4:20 AM 39.2 °F - 37.4 °F 93% 30.09 in 0.8 mi Calm Calm - N/A   Overcast
4:45 AM 39.2 °F - 37.4 °F 93% 30.09 in 1.0 mi Calm Calm - N/A   Overcast
4:53 AM 39.0 °F - 37.9 °F 96% 30.09 in 1.0 mi Calm Calm - N/A   Overcast
5:10 AM 39.2 °F - 37.4 °F 93% 30.09 in 2.0 mi Calm Calm - N/A   Overcast
5:18 AM 39.2 °F - 37.4 °F 93% 30.09 in 1.2 mi Calm Calm - N/A   Overcast
5:28 AM 39.2 °F - 37.4 °F 93% 30.09 in 3.0 mi Calm Calm - N/A   Overcast
5:53 AM 39.0 °F - 37.9 °F 96% 30.09 in 6.0 mi Calm Calm - N/A   Overcast
6:53 AM 39.0 °F - 37.9 °F 96% 30.09 in 4.0 mi Calm Calm - N/A   Overcast
7:53 AM 39.0 °F - 37.9 °F 96% 30.07 in 2.5 mi Calm Calm - N/A   Overcast
8:06 AM 39.2 °F - 37.4 °F 93% 30.08 in 3.0 mi Calm Calm - N/A   Overcast
8:40 AM 39.2 °F - 39.2 °F 100% 30.07 in 2.0 mi Calm Calm - N/A   Overcast
8:53 AM 39.9 °F - 39.0 °F 97% 30.07 in 1.5 mi Calm Calm - N/A   Overcast
9:05 AM 39.2 °F - 39.2 °F 100% 30.07 in 0.8 mi Calm Calm - N/A   Mist
9:14 AM 39.2 °F - 39.2 °F 100% 30.07 in 1.0 mi Calm Calm - N/A   Mist
9:31 AM 39.2 °F - 39.2 °F 100% 30.07 in 2.5 mi Calm Calm - N/A   Overcast
9:45 AM 39.2 °F - 39.2 °F 100% 30.07 in 3.0 mi Calm Calm - N/A   Overcast
9:53 AM 39.9 °F - 39.0 °F 97% 30.07 in 2.5 mi Calm Calm - N/A   Overcast
10:13 AM 39.2 °F - 39.2 °F 100% 30.07 in 3.0 mi Calm Calm - N/A   Overcast
10:53 AM 41.0 °F - 39.9 °F 96% 30.06 in 2.5 mi Calm Calm - 0.00 in Rain Light Rain
11:04 AM 42.8 °F - 39.2 °F 87% 30.06 in 3.0 mi Calm Calm - N/A   Overcast
11:27 AM 42.8 °F - 39.2 °F 87% 30.05 in 4.0 mi Calm Calm - N/A   Overcast
11:53 AM 43.0 °F - 41.0 °F 93% 30.04 in 6.0 mi Calm Calm - N/A   Overcast
12:53 PM 44.1 °F - 42.1 °F 93% 30.03 in 6.0 mi Calm Calm - N/A   Overcast
1:39 PM 46.4 °F - 42.8 °F 87% 30.01 in 7.0 mi Calm Calm - N/A   Overcast
1:53 PM 46.9 °F - 43.0 °F 86% 30.01 in 8.0 mi Calm Calm - N/A   Overcast
2:53 PM 46.9 °F - 44.1 °F 90% 29.99 in 6.0 mi Calm Calm - N/A   Overcast
3:53 PM 46.9 °F - 44.1 °F 90% 29.99 in 9.0 mi NNE 3.5 mph - N/A   Overcast
4:53 PM 46.0 °F 44.8 °F 44.1 °F 93% 29.99 in 8.0 mi North 3.5 mph - N/A   Overcast
5:53 PM 45.0 °F - 42.1 °F 90% 29.99 in 9.0 mi Calm Calm - N/A   Overcast
6:08 PM 44.6 °F - 42.8 °F 93% 29.99 in 9.0 mi Calm Calm - N/A   Overcast
6:41 PM 41.0 °F - 39.2 °F 93% 29.98 in 2.0 mi Calm Calm - N/A   Overcast
6:51 PM 42.8 °F 40.1 °F 41.0 °F 93% 29.98 in 6.0 mi WSW 4.6 mph - N/A   Overcast
6:53 PM 42.1 °F 39.2 °F 41.0 °F 96% 29.98 in 7.0 mi West 4.6 mph - N/A   Overcast
7:31 PM 39.2 °F - 39.2 °F 100% 29.97 in 4.0 mi Calm Calm - N/A   Mostly Cloudy
7:33 PM 39.2 °F - 39.2 °F 100% 29.97 in 2.5 mi Calm Calm - N/A   Scattered Clouds
7:41 PM 39.2 °F 37.0 °F 39.2 °F 100% 29.97 in 1.8 mi West 3.5 mph - N/A   Scattered Clouds
7:44 PM 39.2 °F 35.9 °F 37.4 °F 93% 29.97 in 3.0 mi West 4.6 mph - N/A   Scattered Clouds
7:51 PM 39.2 °F 37.0 °F 37.4 °F 93% 29.97 in 1.5 mi West 3.5 mph - N/A   Partly Cloudy
7:53 PM 39.0 °F 36.8 °F 37.9 °F 96% 29.97 in 1.2 mi WNW 3.5 mph - N/A   Partly Cloudy
8:06 PM 37.4 °F 33.8 °F 37.4 °F 100% 29.96 in 3.0 mi West 4.6 mph - N/A   Clear
8:53 PM 37.0 °F - 36.0 °F 96% 29.96 in 9.0 mi Calm Calm - N/A   Clear
9:01 PM 35.6 °F - 33.8 °F 93% 29.97 in 1.2 mi Calm Calm - N/A   Partly Cloudy
9:03 PM 35.6 °F - 33.8 °F 93% 29.97 in 0.8 mi Calm Calm - N/A   Mist
9:23 PM 35.6 °F - 33.8 °F 93% 29.97 in 0.2 mi Calm Calm - N/A Fog Fog
9:31 PM 35.6 °F - 33.8 °F 93% 29.97 in 1.0 mi Calm Calm - N/A   Mist
9:49 PM 37.4 °F 33.8 °F 37.4 °F 100% 29.97 in 0.5 mi SSW 4.6 mph - N/A Fog Fog
9:53 PM 37.9 °F - 37.9 °F 100% 29.97 in 0.5 mi Calm Calm - N/A Fog Fog
10:05 PM 35.6 °F - 35.6 °F 100% 29.97 in 2.5 mi Calm Calm - N/A   Overcast
10:17 PM 37.4 °F 34.9 °F 35.6 °F 93% 29.97 in 0.8 mi West 3.5 mph - N/A   Mist
10:28 PM 37.4 °F 34.9 °F 35.6 °F 93% 29.98 in 2.0 mi West 3.5 mph - N/A   Overcast
10:37 PM 37.4 °F - 37.4 °F 100% 29.98 in 6.0 mi Calm Calm - N/A   Overcast
10:53 PM 37.0 °F - 35.1 °F 93% 29.97 in 3.0 mi Calm Calm - N/A   Overcast
11:04 PM 35.6 °F - 33.8 °F 93% 29.97 in 1.5 mi Calm Calm - N/A   Mostly Cloudy
11:12 PM 35.6 °F - 35.6 °F 100% 29.97 in 1.2 mi Calm Calm - N/A   Scattered Clouds
11:15 PM 35.6 °F - 35.6 °F 100% 29.97 in 3.0 mi Calm Calm - N/A   Partly Cloudy
11:21 PM 33.8 °F - 33.8 °F 100% 29.97 in 2.5 mi Calm Calm - N/A   Scattered Clouds
11:27 PM 33.8 °F - 33.8 °F 100% 29.97 in 1.0 mi Calm Calm - N/A   Mist
11:30 PM 33.8 °F - 32.0 °F 93% 29.97 in 0.8 mi Calm Calm - N/A   Mist
11:37 PM 33.8 °F - 33.8 °F 100% 29.97 in 0.5 mi Calm Calm - N/A Fog Fog
11:45 PM 33.8 °F - 33.8 °F 100% 29.97 in 2.0 mi Calm Calm - N/A   Overcast
11:53 PM 34.0 °F 29.8 °F 34.0 °F 100% 29.97 in 9.0 mi West 4.6 mph - N/A   Overcast